| time (UTC) | temp F | wind direction | speed MPH | gust MPH | rain 1hr in | rain 24hr in | rain mn in | humidity % | barometer mb |
| 20260510061546 | 42 | 0 | 0.0 | 0.0 | 0.00 | 0.00 | 0.00 | 71 | 1013.6 |
| 20260510061048 | 42 | 0 | 0.0 | 0.0 | 0.00 | 0.00 | 0.00 | 70 | 1013.5 |
| 20260510060547 | 43 | 0 | 0.0 | 0.0 | 0.00 | 0.00 | 0.00 | 70 | 1013.4 |
| 20260510060057 | 43 | 0 | 0.0 | 0.0 | 0.00 | 0.00 | 0.00 | 69 | 1013.2 |
| 20260510055546 | 44 | 0 | 0.0 | 2.0 | 0.00 | 0.00 | 0.00 | 67 | 1013.3 |
| 20260510055045 | 44 | 0 | 0.0 | 2.0 | 0.00 | 0.00 | 0.00 | 67 | 1013.2 |
| 20260510054549 | 44 | 0 | 0.0 | 2.0 | 0.00 | 0.00 | 0.00 | 66 | 1013.2 |
| 20260510054045 | 45 | 0 | 0.0 | 3.0 | 0.00 | 0.00 | 0.00 | 66 | 1013.0 |
| 20260510053548 | 45 | 0 | 0.0 | 4.0 | 0.00 | 0.00 | 0.00 | 65 | 1013.0 |
| 20260510053055 | 45 | 0 | 0.0 | 5.0 | 0.00 | 0.00 | 0.00 | 65 | 1012.9 |
| 20260510052544 | 45 | 26 | 1.0 | 5.0 | 0.00 | 0.00 | 0.00 | 64 | 1012.9 |
| 20260510052047 | 45 | 27 | 1.0 | 7.0 | 0.00 | 0.00 | 0.00 | 64 | 1013.0 |
| 20260510051638 | 46 | 9 | 2.0 | 7.0 | 0.00 | 0.00 | 0.00 | 63 | 1012.8 |
| 20260510051045 | 46 | 0 | 1.0 | 5.0 | 0.00 | 0.00 | 0.00 | 62 | 1012.9 |
| 20260510050547 | 46 | 336 | 1.0 | 8.0 | 0.00 | 0.00 | 0.00 | 61 | 1012.8 |
| 20260510050052 | 47 | 340 | 1.0 | 8.0 | 0.00 | 0.00 | 0.00 | 60 | 1012.8 |
| 20260510045547 | 47 | 343 | 1.0 | 7.0 | 0.00 | 0.00 | 0.00 | 59 | 1012.7 |
| 20260510045047 | 48 | 80 | 1.0 | 8.0 | 0.00 | 0.00 | 0.00 | 57 | 1012.6 |
| 20260510044549 | 48 | 15 | 2.0 | 8.0 | 0.00 | 0.00 | 0.00 | 55 | 1012.4 |
| 20260510044042 | 49 | 346 | 2.0 | 9.0 | 0.00 | 0.00 | 0.00 | 54 | 1012.4 |
| 20260510043543 | 49 | 11 | 2.0 | 9.0 | 0.00 | 0.00 | 0.00 | 51 | 1012.3 |
| 20260510043125 | 49 | 32 | 2.0 | 9.0 | 0.00 | 0.00 | 0.00 | 51 | 1012.1 |
| 20260510042542 | 49 | 26 | 3.0 | 9.0 | 0.00 | 0.00 | 0.00 | 51 | 1011.9 |
| 20260510042045 | 48 | 0 | 0.0 | 4.0 | 0.00 | 0.00 | 0.00 | 53 | 1011.7 |
| 20260510041554 | 48 | 0 | 0.0 | 0.0 | 0.00 | 0.00 | 0.00 | 53 | 1011.4 |
| 20260510041043 | 49 | 0 | 0.0 | 0.0 | 0.00 | 0.00 | 0.00 | 52 | 1011.3 |
| 20260510040545 | 49 | 0 | 0.0 | 0.0 | 0.00 | 0.00 | 0.00 | 53 | 1011.2 |
| 20260510040050 | 49 | 0 | 0.0 | 0.0 | 0.00 | 0.00 | 0.00 | 52 | 1011.0 |
| 20260510035544 | 49 | 0 | 0.0 | 0.0 | 0.00 | 0.00 | 0.00 | 52 | 1011.0 |
| 20260510035046 | 49 | 0 | 0.0 | 0.0 | 0.00 | 0.00 | 0.00 | 53 | 1011.0 |
| 20260510034550 | 50 | 0 | 0.0 | 0.0 | 0.00 | 0.00 | 0.00 | 54 | 1010.9 |
| 20260510034045 | 50 | 0 | 0.0 | 0.0 | 0.00 | 0.00 | 0.00 | 54 | 1010.9 |
| 20260510033545 | 50 | 0 | 0.0 | 0.0 | 0.00 | 0.00 | 0.00 | 54 | 1010.9 |
| 20260510033056 | 50 | 0 | 0.0 | 0.0 | 0.00 | 0.00 | 0.00 | 55 | 1010.7 |
| 20260510032543 | 50 | 0 | 0.0 | 0.0 | 0.00 | 0.00 | 0.00 | 55 | 1010.7 |
| 20260510032045 | 50 | 0 | 0.0 | 0.0 | 0.00 | 0.00 | 0.00 | 54 | 1010.7 |
| 20260510031621 | 51 | 0 | 0.0 | 0.0 | 0.00 | 0.00 | 0.00 | 55 | 1010.6 |
| 20260510031043 | 51 | 0 | 0.0 | 0.0 | 0.00 | 0.00 | 0.00 | 54 | 1010.6 |
| 20260510030543 | 51 | 0 | 0.0 | 0.0 | 0.00 | 0.00 | 0.00 | 54 | 1010.6 |
| 20260510030053 | 51 | 0 | 0.0 | 1.0 | 0.00 | 0.00 | 0.00 | 54 | 1010.6 |
| 20260510025542 | 51 | 0 | 0.0 | 1.0 | 0.00 | 0.00 | 0.00 | 53 | 1010.4 |
| 20260510025042 | 52 | 0 | 0.0 | 0.0 | 0.00 | 0.00 | 0.00 | 53 | 1010.3 |
| 20260510024552 | 52 | 0 | 0.0 | 0.0 | 0.00 | 0.00 | 0.00 | 53 | 1010.3 |
| 20260510024042 | 52 | 0 | 0.0 | 0.0 | 0.00 | 0.00 | 0.00 | 52 | 1010.2 |
| 20260510023543 | 53 | 0 | 0.0 | 0.0 | 0.00 | 0.00 | 0.00 | 52 | 1010.1 |
| 20260510023057 | 53 | 0 | 0.0 | 1.0 | 0.00 | 0.00 | 0.00 | 52 | 1009.9 |
| 20260510022543 | 53 | 0 | 0.0 | 1.0 | 0.00 | 0.00 | 0.00 | 52 | 1009.8 |
| 20260510022041 | 53 | 0 | 0.0 | 0.0 | 0.00 | 0.00 | 0.00 | 53 | 1009.7 |
| 20260510021556 | 53 | 0 | 0.0 | 0.0 | 0.00 | 0.00 | 0.00 | 53 | 1009.5 |
| 20260510021041 | 53 | 0 | 0.0 | 0.0 | 0.00 | 0.00 | 0.00 | 52 | 1009.5 |
| 20260510020546 | 53 | 0 | 0.0 | 0.0 | 0.00 | 0.00 | 0.00 | 52 | 1009.4 |
| 20260510020056 | 54 | 0 | 0.0 | 0.0 | 0.00 | 0.00 | 0.00 | 51 | 1009.2 |
| 20260510015543 | 54 | 0 | 0.0 | 0.0 | 0.00 | 0.00 | 0.00 | 50 | 1009.1 |
| 20260510015043 | 54 | 0 | 0.0 | 0.0 | 0.00 | 0.00 | 0.00 | 50 | 1008.9 |
| 20260510014557 | 55 | 0 | 0.0 | 0.0 | 0.00 | 0.00 | 0.00 | 49 | 1008.8 |
| 20260510014043 | 55 | 0 | 0.0 | 0.0 | 0.00 | 0.00 | 0.00 | 49 | 1008.6 |
| 20260510013547 | 55 | 0 | 0.0 | 0.0 | 0.00 | 0.00 | 0.00 | 48 | 1008.5 |
| 20260510013055 | 55 | 0 | 0.0 | 0.0 | 0.00 | 0.00 | 0.00 | 48 | 1008.3 |
| 20260510012546 | 56 | 0 | 0.0 | 0.0 | 0.00 | 0.00 | 0.00 | 46 | 1008.2 |
| 20260510012043 | 57 | 0 | 0.0 | 0.0 | 0.00 | 0.00 | 0.00 | 46 | 1008.1 |
| 20260510011608 | 57 | 0 | 0.0 | 2.0 | 0.00 | 0.00 | 0.00 | 45 | 1008.2 |
| 20260510011046 | 58 | 0 | 0.0 | 2.0 | 0.00 | 0.00 | 0.00 | 44 | 1008.0 |
| 20260510010545 | 58 | 0 | 0.0 | 4.0 | 0.00 | 0.00 | 0.00 | 43 | 1007.8 |
| 20260510010104 | 58 | 0 | 0.0 | 5.0 | 0.00 | 0.00 | 0.00 | 43 | 1007.8 |
| 20260510005547 | 59 | 0 | 1.0 | 5.0 | 0.00 | 0.00 | 0.00 | 42 | 1007.7 |
| 20260510005046 | 59 | 0 | 0.0 | 4.0 | 0.00 | 0.00 | 0.00 | 42 | 1007.6 |
| 20260510004553 | 59 | 0 | 0.0 | 6.0 | 0.00 | 0.00 | 0.00 | 42 | 1007.5 |
| 20260510004049 | 60 | 10 | 1.0 | 6.0 | 0.00 | 0.00 | 0.00 | 41 | 1007.5 |
| 20260510003547 | 60 | 360 | 1.0 | 6.0 | 0.00 | 0.00 | 0.00 | 41 | 1007.3 |
| 20260510003054 | 60 | 0 | 1.0 | 7.0 | 0.00 | 0.00 | 0.00 | 42 | 1007.3 |
| 20260510002547 | 60 | 355 | 1.0 | 7.0 | 0.00 | 0.00 | 0.00 | 42 | 1007.2 |
| 20260510002047 | 61 | 0 | 1.0 | 11.0 | 0.00 | 0.00 | 0.00 | 42 | 1007.1 |
| 20260510001554 | 61 | 31 | 1.0 | 11.0 | 0.00 | 0.00 | 0.00 | 42 | 1007.0 |
| 20260510001048 | 61 | 43 | 0.0 | 10.0 | 0.00 | 0.00 | 0.00 | 42 | 1006.8 |
| 20260510000546 | 61 | 0 | 0.0 | 10.0 | 0.00 | 0.00 | 0.00 | 43 | 1006.8 |
| 20260510000053 | 61 | 0 | 1.0 | 10.0 | 0.00 | 0.00 | 0.00 | 42 | 1006.7 |
| 20260509235546 | 61 | 24 | 1.0 | 8.0 | 0.00 | 0.00 | 0.00 | 43 | 1006.7 |
| 20260509235045 | 62 | 15 | 1.0 | 11.0 | 0.00 | 0.00 | 0.00 | 42 | 1006.5 |
| 20260509234550 | 62 | 20 | 1.0 | 11.0 | 0.00 | 0.00 | 0.00 | 42 | 1006.5 |
| 20260509234046 | 62 | 0 | 2.0 | 11.0 | 0.00 | 0.00 | 0.00 | 40 | 1006.5 |
| 20260509233546 | 62 | 36 | 2.0 | 7.0 | 0.00 | 0.00 | 0.00 | 42 | 1006.3 |
| 20260509233053 | 62 | 44 | 1.0 | 11.0 | 0.00 | 0.00 | 0.00 | 42 | 1006.3 |
| 20260509232545 | 62 | 13 | 1.0 | 11.0 | 0.00 | 0.00 | 0.00 | 42 | 1006.3 |
| 20260509232047 | 62 | 5 | 1.0 | 12.0 | 0.00 | 0.00 | 0.00 | 41 | 1006.2 |
| 20260509231602 | 63 | 84 | 1.0 | 12.0 | 0.00 | 0.00 | 0.00 | 42 | 1006.3 |
| 20260509231045 | 63 | 341 | 1.0 | 8.0 | 0.00 | 0.00 | 0.00 | 42 | 1006.1 |
| 20260509230546 | 63 | 301 | 2.0 | 10.0 | 0.00 | 0.00 | 0.00 | 41 | 1006.0 |
| 20260509230050 | 63 | 360 | 3.0 | 10.0 | 0.00 | 0.00 | 0.00 | 40 | 1006.0 |
| 20260509225546 | 63 | 51 | 1.0 | 8.0 | 0.00 | 0.00 | 0.00 | 40 | 1005.8 |
| 20260509225046 | 63 | 42 | 1.0 | 14.0 | 0.00 | 0.00 | 0.00 | 40 | 1005.9 |
| 20260509224548 | 64 | 40 | 1.0 | 14.0 | 0.00 | 0.00 | 0.00 | 39 | 1005.7 |
| 20260509224046 | 65 | 350 | 3.0 | 10.0 | 0.00 | 0.00 | 0.00 | 38 | 1005.6 |
| 20260509223547 | 65 | 17 | 2.0 | 7.0 | 0.00 | 0.00 | 0.00 | 39 | 1005.6 |
| 20260509223055 | 65 | 42 | 1.0 | 12.0 | 0.00 | 0.00 | 0.00 | 40 | 1005.5 |
| 20260509222542 | 64 | 56 | 1.0 | 12.0 | 0.00 | 0.00 | 0.00 | 38 | 1005.4 |
| 20260509222042 | 64 | 19 | 1.0 | 9.0 | 0.00 | 0.00 | 0.00 | 39 | 1005.4 |
| 20260509221558 | 65 | 0 | 1.0 | 12.0 | 0.00 | 0.00 | 0.00 | 40 | 1005.3 |
| 20260509221042 | 65 | 27 | 2.0 | 12.0 | 0.00 | 0.00 | 0.00 | 38 | 1005.2 |
| 20260509220541 | 65 | 112 | 4.0 | 11.0 | 0.00 | 0.00 | 0.00 | 38 | 1005.1 |
| 20260509220051 | 66 | 44 | 2.0 | 10.0 | 0.00 | 0.00 | 0.00 | 39 | 1005.1 |
| 20260509215542 | 66 | 302 | 2.0 | 9.0 | 0.00 | 0.00 | 0.00 | 40 | 1005.1 |
| 20260509215045 | 66 | 11 | 2.0 | 9.0 | 0.00 | 0.00 | 0.00 | 39 | 1004.9 |
| 20260509214547 | 66 | 0 | 1.0 | 12.0 | 0.00 | 0.00 | 0.00 | 40 | 1004.9 |
| 20260509214041 | 67 | 271 | 2.0 | 12.0 | 0.00 | 0.00 | 0.00 | 39 | 1004.9 |
| 20260509213541 | 67 | 360 | 2.0 | 12.0 | 0.00 | 0.00 | 0.00 | 38 | 1004.6 |
| 20260509213120 | 67 | 212 | 2.0 | 10.0 | 0.00 | 0.00 | 0.00 | 38 | 1004.6 |
| 20260509212544 | 68 | 0 | 3.0 | 10.0 | 0.00 | 0.00 | 0.00 | 37 | 1004.6 |
| 20260509212042 | 68 | 252 | 2.0 | 10.0 | 0.00 | 0.00 | 0.00 | 38 | 1004.5 |
| 20260509211614 | 69 | 0 | 0.0 | 6.0 | 0.00 | 0.00 | 0.00 | 43 | 1004.5 |
| 20260509211042 | 69 | 34 | 1.0 | 13.0 | 0.00 | 0.00 | 0.00 | 38 | 1004.5 |
| 20260509210542 | 69 | 336 | 4.0 | 13.0 | 0.00 | 0.00 | 0.00 | 38 | 1004.3 |
| 20260509210101 | 69 | 17 | 2.0 | 12.0 | 0.00 | 0.00 | 0.00 | 37 | 1004.3 |
| 20260509205543 | 70 | 36 | 2.0 | 8.0 | 0.00 | 0.00 | 0.00 | 39 | 1004.2 |
| 20260509205043 | 70 | 58 | 0.0 | 10.0 | 0.00 | 0.00 | 0.00 | 39 | 1004.2 |
| 20260509204604 | 71 | 259 | 3.0 | 10.0 | 0.00 | 0.00 | 0.00 | 38 | 1004.2 |
| 20260509204044 | 71 | 0 | 1.0 | 10.0 | 0.00 | 0.00 | 0.00 | 41 | 1004.0 |
| 20260509203543 | 70 | 285 | 2.0 | 12.0 | 0.00 | 0.00 | 0.00 | 40 | 1004.0 |
| 20260509203059 | 70 | 28 | 2.0 | 12.0 | 0.00 | 0.00 | 0.00 | 39 | 1004.0 |
| 20260509202546 | 70 | 23 | 4.0 | 12.0 | 0.00 | 0.00 | 0.00 | 38 | 1003.8 |
| 20260509202042 | 71 | 351 | 3.0 | 12.0 | 0.00 | 0.00 | 0.00 | 38 | 1003.8 |
| 20260509201553 | 71 | 355 | 3.0 | 12.0 | 0.00 | 0.00 | 0.00 | 36 | 1003.8 |
| 20260509201041 | 72 | 336 | 1.0 | 12.0 | 0.00 | 0.00 | 0.00 | 35 | 1003.6 |
| 20260509200541 | 70 | 295 | 1.0 | 12.0 | 0.00 | 0.00 | 0.00 | 39 | 1003.3 |
| 20260509200052 | 69 | 0 | 1.0 | 7.0 | 0.00 | 0.00 | 0.00 | 37 | 1003.4 |
| 20260509195544 | 69 | 302 | 1.0 | 7.0 | 0.00 | 0.00 | 0.00 | 37 | 1003.3 |
| 20260509195042 | 70 | 48 | 1.0 | 7.0 | 0.00 | 0.00 | 0.00 | 36 | 1003.4 |
| 20260509194556 | 72 | 325 | 1.0 | 7.0 | 0.00 | 0.00 | 0.00 | 36 | 1003.3 |
| 20260509194043 | 72 | 30 | 1.0 | 7.0 | 0.00 | 0.00 | 0.00 | 38 | 1003.3 |
| 20260509193543 | 73 | 0 | 2.0 | 9.0 | 0.00 | 0.00 | 0.00 | 35 | 1003.1 |
| 20260509193112 | 73 | 248 | 2.0 | 9.0 | 0.00 | 0.00 | 0.00 | 38 | 1003.1 |
| 20260509192546 | 72 | 0 | 1.0 | 9.0 | 0.00 | 0.00 | 0.00 | 42 | 1003.1 |
| 20260509192046 | 72 | 71 | 2.0 | 8.0 | 0.00 | 0.00 | 0.00 | 38 | 1003.0 |
| 20260509191549 | 72 | 0 | 1.0 | 8.0 | 0.00 | 0.00 | 0.00 | 38 | 1002.9 |
| 20260509191046 | 74 | 196 | 2.0 | 7.0 | 0.00 | 0.00 | 0.00 | 39 | 1002.8 |
| 20260509190545 | 73 | 326 | 1.0 | 9.0 | 0.00 | 0.00 | 0.00 | 40 | 1002.7 |
| 20260509190054 | 73 | 0 | 2.0 | 9.0 | 0.00 | 0.00 | 0.00 | 37 | 1002.7 |
| 20260509185547 | 73 | 109 | 1.0 | 9.0 | 0.00 | 0.00 | 0.00 | 37 | 1002.6 |
| 20260509185046 | 73 | 0 | 2.0 | 9.0 | 0.00 | 0.00 | 0.00 | 35 | 1002.7 |
| 20260509184550 | 73 | 0 | 1.0 | 9.0 | 0.00 | 0.00 | 0.00 | 43 | 1002.5 |
| 20260509184045 | 71 | 29 | 0.0 | 9.0 | 0.00 | 0.00 | 0.00 | 41 | 1002.5 |
| 20260509183545 | 72 | 82 | 2.0 | 5.0 | 0.00 | 0.00 | 0.00 | 36 | 1002.5 |
| 20260509183056 | 72 | 217 | 0.0 | 5.0 | 0.00 | 0.00 | 0.00 | 39 | 1002.4 |
| 20260509182546 | 72 | 142 | 0.0 | 7.0 | 0.00 | 0.00 | 0.00 | 40 | 1002.5 |
| 20260509182045 | 71 | 267 | 2.0 | 7.0 | 0.00 | 0.00 | 0.00 | 37 | 1002.5 |
| 20260509181607 | 70 | 47 | 0.0 | 6.0 | 0.00 | 0.00 | 0.00 | 43 | 1002.5 |
| 20260509181046 | 70 | 136 | 1.0 | 7.0 | 0.00 | 0.00 | 0.00 | 41 | 1002.4 |
| 20260509180546 | 71 | 180 | 2.0 | 7.0 | 0.00 | 0.00 | 0.00 | 40 | 1002.4 |
| 20260509180055 | 70 | 0 | 1.0 | 10.0 | 0.00 | 0.00 | 0.00 | 43 | 1002.4 |
| 20260509175547 | 70 | 201 | 2.0 | 10.0 | 0.00 | 0.00 | 0.00 | 40 | 1002.5 |
| 20260509175047 | 70 | 146 | 1.0 | 6.0 | 0.00 | 0.00 | 0.00 | 41 | 1002.4 |
| 20260509174554 | 69 | 168 | 1.0 | 8.0 | 0.00 | 0.00 | 0.00 | 39 | 1002.5 |
| 20260509174046 | 70 | 232 | 1.0 | 10.0 | 0.00 | 0.00 | 0.00 | 41 | 1002.6 |
| 20260509173545 | 69 | 217 | 2.0 | 10.0 | 0.00 | 0.00 | 0.00 | 41 | 1002.5 |
| 20260509173052 | 70 | 269 | 1.0 | 6.0 | 0.00 | 0.00 | 0.00 | 42 | 1002.7 |
| 20260509172546 | 70 | 202 | 1.0 | 6.0 | 0.00 | 0.00 | 0.00 | 41 | 1002.7 |
| 20260509172046 | 69 | 232 | 2.0 | 6.0 | 0.00 | 0.00 | 0.00 | 39 | 1002.7 |
| 20260509171607 | 69 | 0 | 1.0 | 8.0 | 0.00 | 0.00 | 0.00 | 44 | 1002.8 |
| 20260509171045 | 67 | 308 | 3.0 | 8.0 | 0.00 | 0.00 | 0.00 | 42 | 1002.7 |
| 20260509170545 | 67 | 192 | 2.0 | 7.0 | 0.00 | 0.00 | 0.00 | 43 | 1002.9 |
| 20260509170050 | 66 | 223 | 1.0 | 7.0 | 0.00 | 0.00 | 0.00 | 48 | 1002.7 |
| 20260509165545 | 65 | 189 | 1.0 | 7.0 | 0.00 | 0.00 | 0.00 | 44 | 1002.7 |
| 20260509165045 | 64 | 207 | 2.0 | 6.0 | 0.00 | 0.00 | 0.00 | 44 | 1002.9 |
| 20260509164557 | 64 | 219 | 1.0 | 5.0 | 0.00 | 0.00 | 0.00 | 43 | 1002.9 |
| 20260509164045 | 63 | 186 | 0.0 | 2.0 | 0.00 | 0.00 | 0.00 | 48 | 1003.0 |
| 20260509163547 | 63 | 0 | 0.0 | 5.0 | 0.00 | 0.00 | 0.00 | 44 | 1003.2 |
| 20260509163059 | 63 | 0 | 0.0 | 5.0 | 0.00 | 0.00 | 0.00 | 46 | 1003.1 |
| 20260509162545 | 62 | 200 | 0.0 | 5.0 | 0.00 | 0.00 | 0.00 | 42 | 1003.1 |
| 20260509162044 | 62 | 0 | 0.0 | 4.0 | 0.00 | 0.00 | 0.00 | 45 | 1003.2 |
| 20260509161551 | 63 | 201 | 1.0 | 4.0 | 0.00 | 0.00 | 0.00 | 42 | 1003.3 |
| 20260509161045 | 63 | 0 | 0.0 | 4.0 | 0.00 | 0.00 | 0.00 | 43 | 1003.3 |
| 20260509160546 | 63 | 0 | 0.0 | 4.0 | 0.00 | 0.00 | 0.00 | 47 | 1003.3 |
| 20260509160054 | 62 | 0 | 0.0 | 6.0 | 0.00 | 0.00 | 0.00 | 45 | 1003.3 |
| 20260509155545 | 63 | 107 | 1.0 | 6.0 | 0.00 | 0.00 | 0.00 | 43 | 1003.3 |
| 20260509155048 | 63 | 0 | 0.0 | 4.0 | 0.00 | 0.00 | 0.00 | 46 | 1003.3 |
| 20260509154553 | 63 | 0 | 0.0 | 4.0 | 0.00 | 0.00 | 0.00 | 43 | 1003.3 |
| 20260509154045 | 63 | 0 | 0.0 | 4.0 | 0.00 | 0.00 | 0.00 | 47 | 1003.2 |
| 20260509153545 | 64 | 0 | 0.0 | 6.0 | 0.00 | 0.00 | 0.00 | 45 | 1003.2 |
| 20260509153053 | 64 | 0 | 0.0 | 6.0 | 0.00 | 0.00 | 0.00 | 49 | 1003.3 |
| 20260509152545 | 64 | 80 | 0.0 | 4.0 | 0.00 | 0.00 | 0.00 | 51 | 1003.2 |
| 20260509152046 | 63 | 0 | 0.0 | 2.0 | 0.00 | 0.00 | 0.00 | 52 | 1003.1 |
| 20260509151552 | 62 | 0 | 0.0 | 4.0 | 0.00 | 0.00 | 0.00 | 55 | 1002.8 |
| 20260509151048 | 62 | 200 | 0.0 | 4.0 | 0.00 | 0.00 | 0.00 | 53 | 1002.7 |
| 20260509150546 | 61 | 202 | 0.0 | 4.0 | 0.00 | 0.00 | 0.00 | 53 | 1002.6 |
| 20260509150052 | 61 | 0 | 0.0 | 5.0 | 0.00 | 0.00 | 0.00 | 56 | 1002.6 |
| 20260509145544 | 60 | 0 | 0.0 | 5.0 | 0.00 | 0.00 | 0.00 | 56 | 1002.6 |
| 20260509145043 | 60 | 0 | 1.0 | 5.0 | 0.00 | 0.00 | 0.00 | 58 | 1002.4 |
| 20260509144552 | 60 | 205 | 1.0 | 5.0 | 0.00 | 0.00 | 0.00 | 59 | 1002.4 |
| 20260509144044 | 61 | 211 | 1.0 | 3.0 | 0.00 | 0.00 | 0.00 | 57 | 1002.3 |
| 20260509143544 | 61 | 221 | 1.0 | 4.0 | 0.00 | 0.00 | 0.00 | 57 | 1002.4 |
| 20260509143104 | 61 | 0 | 0.0 | 4.0 | 0.00 | 0.00 | 0.00 | 57 | 1002.5 |
| 20260509142547 | 61 | 199 | 0.0 | 4.0 | 0.00 | 0.00 | 0.00 | 60 | 1002.4 |
| 20260509142045 | 60 | 200 | 0.0 | 4.0 | 0.00 | 0.00 | 0.00 | 59 | 1002.4 |
| 20260509141554 | 60 | 203 | 0.0 | 3.0 | 0.00 | 0.00 | 0.00 | 59 | 1002.4 |
| 20260509141047 | 60 | 191 | 0.0 | 3.0 | 0.00 | 0.00 | 0.00 | 59 | 1002.3 |
| 20260509140545 | 61 | 0 | 0.0 | 3.0 | 0.00 | 0.00 | 0.00 | 58 | 1002.2 |
| 20260509140058 | 61 | 0 | 0.0 | 2.0 | 0.00 | 0.00 | 0.00 | 59 | 1002.3 |
| 20260509135547 | 61 | 190 | 0.0 | 2.0 | 0.00 | 0.00 | 0.00 | 58 | 1002.2 |
| 20260509135047 | 60 | 0 | 0.0 | 2.0 | 0.00 | 0.00 | 0.00 | 60 | 1002.1 |
| 20260509134557 | 60 | 0 | 0.0 | 3.0 | 0.00 | 0.00 | 0.00 | 59 | 1002.0 |
| 20260509134047 | 60 | 0 | 0.0 | 5.0 | 0.00 | 0.00 | 0.00 | 63 | 1002.1 |
| 20260509133547 | 60 | 200 | 1.0 | 5.0 | 0.00 | 0.00 | 0.00 | 67 | 1002.2 |
| 20260509133101 | 59 | 228 | 1.0 | 5.0 | 0.00 | 0.00 | 0.00 | 69 | 1002.2 |
| 20260509132547 | 59 | 194 | 0.0 | 4.0 | 0.00 | 0.00 | 0.00 | 71 | 1002.2 |
| 20260509132050 | 58 | 0 | 1.0 | 4.0 | 0.00 | 0.00 | 0.00 | 72 | 1002.2 |
| 20260509131556 | 58 | 192 | 1.0 | 5.0 | 0.00 | 0.00 | 0.00 | 72 | 1002.2 |
| 20260509131048 | 58 | 256 | 1.0 | 5.0 | 0.00 | 0.00 | 0.00 | 74 | 1002.1 |
| 20260509130547 | 57 | 0 | 1.0 | 4.0 | 0.00 | 0.00 | 0.00 | 75 | 1001.7 |
| 20260509125547 | 56 | 215 | 0.0 | 4.0 | 0.00 | 0.00 | 0.00 | 76 | 1001.8 |
| 20260509125044 | 56 | 196 | 2.0 | 4.0 | 0.00 | 0.00 | 0.00 | 77 | 1001.9 |
| 20260509124605 | 56 | 0 | 0.0 | 5.0 | 0.00 | 0.00 | 0.00 | 78 | 1001.9 |
| 20260509124044 | 55 | 215 | 2.0 | 5.0 | 0.00 | 0.00 | 0.00 | 79 | 1001.8 |
| 20260509123549 | 55 | 190 | 1.0 | 7.0 | 0.00 | 0.00 | 0.00 | 80 | 1001.8 |
| 20260509123057 | 55 | 232 | 1.0 | 7.0 | 0.00 | 0.00 | 0.00 | 80 | 1001.9 |
| 20260509122543 | 55 | 214 | 2.0 | 7.0 | 0.00 | 0.00 | 0.00 | 81 | 1001.9 |
| 20260509122047 | 54 | 175 | 1.0 | 6.0 | 0.00 | 0.00 | 0.00 | 82 | 1001.9 |
| 20260509121552 | 54 | 208 | 0.0 | 4.0 | 0.00 | 0.00 | 0.00 | 82 | 1002.0 |
| 20260509121048 | 54 | 210 | 0.0 | 5.0 | 0.00 | 0.00 | 0.00 | 83 | 1002.0 |
| 20260509120545 | 54 | 0 | 1.0 | 5.0 | 0.00 | 0.00 | 0.00 | 83 | 1002.0 |
| 20260509120050 | 54 | 215 | 1.0 | 5.0 | 0.00 | 0.00 | 0.00 | 84 | 1001.9 |
| 20260509115545 | 53 | 0 | 1.0 | 5.0 | 0.00 | 0.00 | 0.00 | 84 | 1001.9 |
| 20260509115045 | 53 | 0 | 1.0 | 5.0 | 0.00 | 0.00 | 0.00 | 84 | 1001.7 |
| 20260509114556 | 53 | 196 | 1.0 | 5.0 | 0.00 | 0.00 | 0.00 | 84 | 1001.7 |
| 20260509114045 | 53 | 190 | 1.0 | 5.0 | 0.00 | 0.00 | 0.00 | 84 | 1001.8 |
| 20260509113545 | 53 | 207 | 1.0 | 5.0 | 0.00 | 0.00 | 0.00 | 84 | 1001.7 |
| 20260509113050 | 53 | 232 | 1.0 | 4.0 | 0.00 | 0.00 | 0.00 | 84 | 1001.7 |
| 20260509112545 | 53 | 200 | 1.0 | 4.0 | 0.00 | 0.00 | 0.00 | 84 | 1001.5 |
| 20260509112045 | 53 | 199 | 1.0 | 3.0 | 0.00 | 0.00 | 0.00 | 84 | 1001.5 |
| 20260509111553 | 53 | 228 | 0.0 | 3.0 | 0.00 | 0.00 | 0.00 | 84 | 1001.4 |
| 20260509111045 | 53 | 203 | 1.0 | 4.0 | 0.00 | 0.00 | 0.00 | 83 | 1001.5 |
| 20260509110545 | 53 | 225 | 0.0 | 4.0 | 0.00 | 0.00 | 0.00 | 83 | 1001.5 |
| 20260509110057 | 53 | 205 | 1.0 | 4.0 | 0.00 | 0.00 | 0.00 | 83 | 1001.3 |
| 20260509105545 | 53 | 226 | 1.0 | 4.0 | 0.00 | 0.00 | 0.00 | 84 | 1001.2 |
| 20260509105045 | 53 | 205 | 0.0 | 4.0 | 0.00 | 0.00 | 0.00 | 83 | 1001.2 |
| 20260509104548 | 53 | 219 | 1.0 | 5.0 | 0.00 | 0.00 | 0.00 | 83 | 1001.2 |
| 20260509104044 | 53 | 216 | 1.0 | 6.0 | 0.00 | 0.00 | 0.00 | 83 | 1001.1 |
| 20260509103545 | 53 | 207 | 2.0 | 6.0 | 0.00 | 0.00 | 0.00 | 83 | 1001.0 |
| 20260509103050 | 53 | 222 | 2.0 | 5.0 | 0.00 | 0.00 | 0.00 | 83 | 1000.8 |
| 20260509102545 | 53 | 219 | 1.0 | 5.0 | 0.00 | 0.00 | 0.00 | 83 | 1000.8 |
| 20260509102046 | 53 | 198 | 2.0 | 5.0 | 0.00 | 0.00 | 0.00 | 83 | 1000.8 |
| 20260509101555 | 53 | 0 | 1.0 | 6.0 | 0.00 | 0.00 | 0.00 | 83 | 1000.8 |
| 20260509101044 | 53 | 196 | 0.0 | 6.0 | 0.00 | 0.00 | 0.00 | 82 | 1000.9 |
| 20260509100545 | 53 | 198 | 2.0 | 7.0 | 0.00 | 0.00 | 0.00 | 82 | 1000.9 |
| 20260509100108 | 53 | 209 | 1.0 | 7.0 | 0.00 | 0.00 | 0.00 | 82 | 1001.0 |
| 20260509095546 | 53 | 221 | 2.0 | 6.0 | 0.00 | 0.00 | 0.00 | 82 | 1000.8 |
| 20260509095045 | 53 | 193 | 3.0 | 6.0 | 0.00 | 0.00 | 0.00 | 82 | 1001.2 |
| 20260509094551 | 54 | 0 | 2.0 | 6.0 | 0.00 | 0.00 | 0.00 | 82 | 1001.3 |
| 20260509094045 | 54 | 220 | 2.0 | 6.0 | 0.00 | 0.00 | 0.00 | 81 | 1001.3 |
| 20260509093545 | 54 | 209 | 2.0 | 8.0 | 0.00 | 0.00 | 0.00 | 81 | 1001.2 |
| 20260509093055 | 54 | 234 | 3.0 | 8.0 | 0.00 | 0.00 | 0.00 | 81 | 1001.2 |
| 20260509092545 | 54 | 221 | 2.0 | 8.0 | 0.00 | 0.00 | 0.00 | 81 | 1001.3 |
| 20260509092046 | 54 | 0 | 2.0 | 6.0 | 0.00 | 0.00 | 0.00 | 81 | 1001.3 |
| 20260509091552 | 54 | 220 | 1.0 | 7.0 | 0.00 | 0.00 | 0.00 | 81 | 1001.4 |
| 20260509091047 | 54 | 201 | 2.0 | 7.0 | 0.00 | 0.00 | 0.00 | 81 | 1001.2 |
| 20260509090548 | 54 | 243 | 3.0 | 7.0 | 0.00 | 0.00 | 0.00 | 81 | 1001.2 |
| 20260509090052 | 54 | 234 | 2.0 | 6.0 | 0.00 | 0.00 | 0.00 | 81 | 1001.3 |
| 20260509085545 | 54 | 223 | 3.0 | 8.0 | 0.00 | 0.00 | 0.00 | 81 | 1001.2 |
| 20260509085044 | 54 | 215 | 4.0 | 8.0 | 0.00 | 0.00 | 0.00 | 81 | 1001.3 |
| 20260509084558 | 54 | 202 | 3.0 | 8.0 | 0.00 | 0.00 | 0.00 | 81 | 1001.2 |
| 20260509084046 | 54 | 207 | 2.0 | 7.0 | 0.00 | 0.00 | 0.00 | 81 | 1001.3 |
| 20260509083545 | 54 | 197 | 2.0 | 7.0 | 0.00 | 0.00 | 0.00 | 81 | 1001.4 |
| 20260509083051 | 54 | 201 | 2.0 | 7.0 | 0.00 | 0.00 | 0.00 | 81 | 1001.4 |
| 20260509082545 | 54 | 208 | 3.0 | 7.0 | 0.00 | 0.00 | 0.00 | 81 | 1001.4 |
| 20260509082047 | 54 | 207 | 3.0 | 7.0 | 0.00 | 0.00 | 0.00 | 82 | 1001.3 |
| 20260509081552 | 54 | 219 | 3.0 | 7.0 | 0.00 | 0.00 | 0.00 | 81 | 1001.4 |
| 20260509081045 | 54 | 236 | 3.0 | 7.0 | 0.00 | 0.00 | 0.00 | 81 | 1001.4 |
| 20260509080545 | 54 | 218 | 4.0 | 9.0 | 0.00 | 0.00 | 0.00 | 81 | 1001.4 |
| 20260509080129 | 54 | 201 | 3.0 | 9.0 | 0.00 | 0.00 | 0.00 | 81 | 1001.4 |
| 20260509075547 | 54 | 212 | 3.0 | 7.0 | 0.00 | 0.00 | 0.00 | 81 | 1001.6 |
| 20260509075047 | 54 | 198 | 3.0 | 6.0 | 0.00 | 0.00 | 0.00 | 81 | 1001.5 |
| 20260509074557 | 54 | 209 | 3.0 | 6.0 | 0.00 | 0.00 | 0.00 | 81 | 1001.6 |
| 20260509074046 | 54 | 186 | 2.0 | 6.0 | 0.00 | 0.00 | 0.00 | 80 | 1001.6 |
| 20260509073546 | 55 | 197 | 2.0 | 6.0 | 0.00 | 0.00 | 0.00 | 80 | 1001.6 |
| 20260509073156 | 55 | 196 | 3.0 | 7.0 | 0.00 | 0.00 | 0.00 | 80 | 1001.6 |
| 20260509072546 | 55 | 215 | 3.0 | 7.0 | 0.00 | 0.00 | 0.00 | 80 | 1001.6 |
| 20260509072045 | 55 | 236 | 3.0 | 7.0 | 0.00 | 0.00 | 0.00 | 79 | 1001.6 |
| 20260509071551 | 55 | 186 | 3.0 | 7.0 | 0.00 | 0.00 | 0.00 | 78 | 1001.8 |
| 20260509071046 | 55 | 194 | 4.0 | 8.0 | 0.00 | 0.00 | 0.00 | 78 | 1001.7 |
| 20260509070545 | 56 | 200 | 4.0 | 8.0 | 0.00 | 0.00 | 0.00 | 78 | 1001.8 |
| 20260509070054 | 56 | 201 | 3.0 | 8.0 | 0.00 | 0.00 | 0.00 | 77 | 1001.8 |
| 20260509065545 | 56 | 220 | 3.0 | 10.0 | 0.00 | 0.00 | 0.00 | 78 | 1002.1 |
| 20260509065047 | 56 | 210 | 3.0 | 10.0 | 0.00 | 0.00 | 0.00 | 76 | 1002.1 |
| 20260509064550 | 56 | 224 | 4.0 | 9.0 | 0.00 | 0.00 | 0.00 | 76 | 1002.2 |
| 20260509064047 | 56 | 202 | 2.0 | 8.0 | 0.00 | 0.00 | 0.00 | 75 | 1002.3 |
| 20260509063547 | 56 | 0 | 3.0 | 9.0 | 0.00 | 0.00 | 0.00 | 75 | 1002.4 |
| 20260509063049 | 56 | 229 | 4.0 | 9.0 | 0.00 | 0.00 | 0.00 | 74 | 1002.3 |
| 20260509062544 | 56 | 215 | 3.0 | 6.0 | 0.00 | 0.00 | 0.00 | 75 | 1002.5 |
| 20260509062045 | 55 | 215 | 3.0 | 7.0 | 0.00 | 0.00 | 0.00 | 74 | 1002.6 |